Location: Niedergestelen
(46.3129°N, 7.7822°E)
Time: 16:32:20
(UTC+00:00)

USA 215 - Pass Details

Date: 01 December 2020
Orbit: 1099 x 1109 km, 123.0° (Epoch: 22 January)

Event Time Altitude Azimuth Distance (km) Brightness Sun altitude
Exits shadow 18:46:50 81° 29° (NNE) 1,120 3.1 -30.8°
Maximum altitude 18:47:10 86° 324° (NW) 1,110 3.1 -30.9°
Drops below altitude 10° 18:53:42 10° 237° (WSW) 2,953 6.1 -32.0°
Sets 18:56:10 0° 237° (WSW) 3,907 6.9 -32.4°
